Regional Weather Roundup
Issued by NWS

Home | Current Version | Previous Version | Text Only | Print | Product List | Glossary On
Versions: 1 2 3 4 5 6 7 8 9 10 11 12 13 14 15 16 17 18 19 20 21 22 23 24 25 26 27 28 29 30 31 32 33 34 35 36 37 38 39 40 41 42 43 44 45 46 47 48 49 50
000
ASUS43 KDTX 040710
RWRMI
MICHIGAN HOURLY REGIONAL WEATHER ROUNDUP
NATIONAL WEATHER SERVICE DETROIT/PONTIAC MI
300 AM EDT WED MAY 04 2016

NOTE: "FAIR" INDICATES FEW OR NO CLOUDS BELOW 12,000 FEET WITH NO
SIGNIFICANT WEATHER AND/OR OBSTRUCTION TO VISIBILITY.

MIZ047>049-052>055-059>063-066>070-074>076-081>083-040800-
SOUTHEAST LOWER MICHIGAN

CITY           SKY/WX    TMP DP  RH WIND       PRES   REMARKS
ADRIAN         CLOUDY    49  43  80 SW8       29.70F
ALMA           CLOUDY    50  38  64 SW9       29.63F
ANN ARBOR      CLOUDY    48  43  82 SW6       29.69F
BAD AXE        CLOUDY    48  43  82 S7        29.64F
CARO           MOCLDY    53  38  57 S7        29.63F
DETROIT CITY   PTCLDY    52  41  66 SW10      29.69F
DETROIT        CLOUDY    49  42  77 S6        29.70F
FLINT          LGT RAIN  57  39  51 SW16      29.66F
GROSSE ILE     PTCLDY    52  45  76 SW6       29.69F
HILLSDALE      CLOUDY    52  40  62 S6        29.68F
HOWELL         CLOUDY    54  40  59 S8        29.65F

CITY           SKY/WX    TMP DP  RH WIND       PRES   REMARKS
JACKSON        CLOUDY    53  42  66 S9        29.66F
LAMBERTVILLE   PTCLDY    51  45  78 S5        29.71F
LANSING        MOCLDY    54  39  57 S10       29.64F
LAPEER         MOCLDY    51  41  68 S5        29.66F
MASON          CLOUDY    53  42  66 S5        29.66F
MONROE         MOCLDY    50  45  81 SW5       29.69F
MT. CLEMENS    MOCLDY    45  45  99 S7        29.67F
PONTIAC        PTCLDY    50  41  71 S5        29.66F
PORT HOPE        N/A     52  42  69 VRB6      29.62F
PORT HURON     CLOUDY    46  43  87 CALM      29.69F
TRI CITIES     CLOUDY    56  37  49 SW7       29.63F
MIDLAND        MOCLDY    48  38  68 CALM      29.61F
TROY           CLEAR     51  42  69 S8        29.70F
SAGINAW HB     CLOUDY    52  37  58 S7        29.61F
$$
MIZ043>046-050>051-056>058-064>065-071>073-077>080-040800-
SOUTHWEST LOWER MICHIGAN

CITY           SKY/WX    TMP DP  RH WIND       PRES   REMARKS
BATTLE CREEK   CLOUDY    51  44  77 S10       29.65F
BENTON HARBOR  CLOUDY    54  44  69 S7        29.62F
BIG RAPIDS     RAIN      48  44  84 CALM      29.61S
COLDWATER      CLOUDY    55  42  61 S9        29.66F
FREMONT        RAIN      48  48 100 CALM      29.61S
HOLLAND        CLOUDY    50  46  86 CALM      29.62F
GRAND RAPIDS   CLOUDY    54  42  64 S10       29.61F
IONIA          LGT RAIN  51  40  64 SW5       29.62F
KALAMAZOO      CLOUDY    53  42  66 S8        29.65F
LUDINGTON      RAIN      46  46  97 N9        29.64S
MARSHALL       LGT RAIN  51  46  82 S5        29.66F
MOUNT PLEASANT MOCLDY    48  40  73 CALM      29.61F
MUSKEGON       CLOUDY    50  44  80 N3        29.62S
SOUTH HAVEN    CLOUDY    55  42  61 S6        29.61F
$$
MIZ016>042-040800-
NORTHERN LOWER MICHIGAN

CITY           SKY/WX    TMP DP  RH WIND       PRES   REMARKS
ALPENA         CLOUDY    48  43  82 CALM      29.63F
BEAVER ISLAND  CLOUDY    42  40  95 NW7       29.65S
BELLAIRE       CLOUDY    47  46  95 CALM      29.63F FOG
CADILLAC       LGT RAIN  46  45  95 CALM      29.61F
CHARLEVOIX     CLOUDY    43  43 100 W8        29.67S FOG
FRANKFORT      LGT RAIN  44  42  93 N9        29.65S
GAYLORD        LGT RAIN  47  43  86 CALM      29.61F
GRAYLING       CLOUDY    46  45  93 CALM      29.62F
HARBOR SPRINGS CLOUDY    46  45  97 CALM      29.63S
HOUGHTON LAKE  LGT RAIN  48  43  82 CALM      29.61F
MANISTEE       CLOUDY    45  39  81 NW9       29.65S
OSCODA         PTCLDY    47  41  79 E6        29.63F
PELLSTON       CLOUDY    47  45  93 CALM      29.63S
ROGERS CITY    LGT RAIN  47  44  90 CALM      29.64F
TRAVERSE CITY  LGT RAIN  49  45  86 NW12      29.62F
$$
MIZ007>008-015-040800-
EASTERN UPPER MICHIGAN

CITY           SKY/WX    TMP DP  RH WIND       PRES   REMARKS
KINROSS          N/A     43  43 100 NW9       29.63S
MACKINAC ISLAN CLOUDY    45  45 100 W7        29.63S
NEWBERRY       CLOUDY    40  39  97 NW7       29.66R
S. S. MARIE    CLOUDY    43  41  93 NW8       29.63S FOG
MUNISING         N/A     40  37  89 NW9       29.71S WCI  34
$$
MIZ004>006-011>014-085-040800-
CENTRAL UPPER MICHIGAN

CITY           SKY/WX    TMP DP  RH WIND       PRES   REMARKS
MANISTIQUE     CLOUDY    40  39  95 NW9       29.66F WCI  35
ESCANABA       CLOUDY    43  36  75 N13G18    29.71S
MENOMINEE        N/A     43  38  82 N10       29.73R
SAWYER-GWINN   CLOUDY    39  35  85 N14G22    29.72S WCI  31
$$
MIZ001>003-009>011-084-040800-
WESTERN UPPER MICHIGAN

CITY           SKY/WX    TMP DP  RH WIND       PRES   REMARKS
IRON MOUNTAIN  MOCLDY    41  34  76 N13       29.73S
HOUGHTON       CLOUDY    40  35  83 N14G22    29.79R WCI  32
COPPER HARBOR    N/A     40  36  86 NE13      29.78R WCI  32
IRONWOOD         N/A     45  36  70 N8        29.81S
$$

ABBREVIATIONS USED IN REMARKS
   TC - TEMPERATURE IN CELSIUS
  WCI - WIND CHILL INDEX
   HX - HEAT INDEX
  VSB - VISIBILITY





USA.gov is the U.S. government's official web portal to all federal, state and local government web resources and services.